User: anonymous   Login
Location: Unspecified
(0.0000°N, 0.0000°E)
Time: 09:13:34
(UTC+00:00)
Language:

Transit VBN-1 - Orbit

View from above orbital plane
View from above orbital plane
View from above satellite
View from above satellite

Ground track
Ground track

The orbit data is extracted from the following two-line orbital elements,

1 00670U 63038B   18109.66086523  .00000040  00000-0  53536-4 0  9998
2 00670  90.0660 327.4126 0039528 284.7029 135.8922 13.44290878674317
Epoch (UTC): 19 April 2018 15:51:38
Eccentricity: 0.0039528
inclination: 90.0660°
perigee height: 1064 km
apogee height: 1123 km
right ascension of ascending node: 327.4126°
argument of perigee: 284.7029°
revolutions per day: 13.44290878
mean anomaly at epoch: 135.8922°
orbit number at epoch: 67431

The dashed part of the orbit path shows where the satellite is in the earth's shadow,  

DLR